User: anonymous   Login
Location: STAR School
(35.3054°N, 111.2976°W)
Time: 06:42:04
(UTC-07:00)
Language:

Transit 4A - Orbit

View from above orbital plane
View from above orbital plane
View from above satellite
View from above satellite

Ground track
Ground track

The orbit data is extracted from the following two-line orbital elements,

1   116U 61015A   19289.85734912 -.00000075  00000-0  11224-5 0  9997
2   116  66.8089  86.1408 0076435 185.3518 174.6753 13.91759894958269
Epoch (UTC): 16 October 2019 20:34:34
Eccentricity: 0.0076435
inclination: 66.8089°
perigee height: 866 km
apogee height: 978 km
right ascension of ascending node: 86.1408°
argument of perigee: 185.3518°
revolutions per day: 13.91759894
mean anomaly at epoch: 174.6753°
orbit number at epoch: 95826

The dashed part of the orbit path shows where the satellite is in the earth's shadow,  

DLR